Easy to use

vPilot, FSInn, and Squawkbox

VATSIM has 3 different client software available to choose by the user. The 3 different softwares are relatively easy to use and enjoyable to the user's experience. The software's operating manual is available to download in case user has not been able to fully operate the software to get a real working pilot experience.

Radar that functions similarly to real ATC's radar

EuroScope & VRC

VATSIM uses an advanced radar client simulating real ATC experience in the real world. Although it said to be advanced, both radar clients are very easy to use. Another interesting point is VATSIM has the technology to break the limit between simulation and real life experience.

With VATSIM, you can learn more about aviation.
You can also discuss with other aviation geek.

Unforgettable Experience

Current Activity

No controllers currently online!

Pilot

Callsign Name Route
TAP157Vincenzo Musumeci KJFK (992008)VDPP-WADD

*This information may not be up to date.

METAR

Airport Name - Location (ICAO) METAR
Sultan Hasanuddin - Makassar (WAAA)METAR WAAA 222330Z 10004KT 070V130 9999 FEW019 27/24 Q1011|NOSIG=
I Gusti Ngurah Rai - Denpasar (WADD)METAR WADD 222330Z VRB02KT 9999 FEW017 28/26 Q1010|NOSIG=
Juanda - Surabaya (WARR)METAR WARR 222330Z 15003KT 7000 SCT020 27/25 Q1011|NOSIG=
Soekarno Hatta - Jakarta (WIII)METAR WIII 222330Z VRB04KT 3000 -TSRA SCT017CB BKN018 26/25 Q1010|NOSIG|RMK CB TO E=
Halim Perdana Kusuma - Jakarta (WIHH)METAR WIHH 222100Z 00000KT 4000 -RA SCT018 26/26 Q1009|NOSIG=
Kualanamu International Airport - Deli Serdang (WIMM)METAR WIMM 222330Z 20003KT 1500 BR SCT020 24/24 Q1010|NOSIG=

*METAR resource from BMKG. This information may not be up to date.

VATSIM Indonesia vACC VATSIM South East Asia VATSIM Asia